Location: Newark
(37.7892°N, 97.1083°W)
Time: 09:18:49
(UTC+00:00)

Envisat - Visible Passes

Search period start: 07 December 2019 00:00
Search period end: 17 December 2019 00:00
Orbit: 764 x 766 km, 98.1° (Epoch: 07 December)

Date Brightness Start Highest point End Pass type
(mag) Time Alt. Az. Time Alt. Az. Time Alt. Az.
07 Dec 4.4 01:05:04 10° SSW 01:09:47 39° W 01:14:33 10° NNW visible
08 Dec 2.9 00:27:53 10° SSE 00:32:57 89° ENE 00:38:04 10° NNW visible
08 Dec 4.8 12:38:57 10° NNE 12:43:36 35° E 12:48:12 10° SSE visible
08 Dec 3.4 23:51:39 10° SE 23:56:19 39° ENE 00:01:01 10° N visible
09 Dec 5.4 01:31:33 10° SW 01:35:25 22° W 01:39:20 10° NW visible
09 Dec 6.0 12:03:37 10° NE 12:06:33 15° E 12:09:28 10° SE visible
10 Dec 3.9 00:53:33 10° S 00:58:28 51° W 01:03:25 10° NNW visible
11 Dec 2.9 00:16:40 10° SSE 00:21:42 70° ENE 00:26:45 10° N visible
11 Dec 6.1 01:59:20 10° WSW 02:01:10 12° W 02:03:01 10° WNW visible
11 Dec 5.3 12:27:56 10° NE 12:32:15 28° E 12:36:33 10° SSE visible
11 Dec 3.7 23:40:43 10° SE 23:45:07 31° ENE 23:49:32 10° N visible
12 Dec 5.0 01:19:45 10° SSW 01:24:05 28° W 01:28:25 10° NW visible
12 Dec 6.3 11:53:26 10° ENE 11:55:09 12° E 11:56:52 10° ESE visible
13 Dec 3.4 00:42:08 10° S 00:47:10 66° W 00:52:14 10° NNW visible
13 Dec 4.1 12:52:55 10° NNE 12:57:52 50° E 13:02:46 10° S visible
14 Dec 3.1 00:05:32 10° SSE 00:10:27 54° ENE 00:15:25 10° N visible
14 Dec 5.9 01:46:47 10° SW 01:49:47 16° W 01:52:46 10° NW visible
14 Dec 5.7 12:17:01 10° NE 12:20:53 22° E 12:24:45 10° SE visible
14 Dec 4.0 23:29:54 10° ESE 23:33:56 24° ENE 23:37:59 10° NNE visible
15 Dec 4.6 01:08:06 10° SSW 01:12:44 36° W 01:17:24 10° NNW visible
16 Dec 3.0 00:30:49 10° SSE 00:35:53 84° WSW 00:40:59 10° NNW visible
16 Dec 4.6 12:41:48 10° NNE 12:46:32 39° E 12:51:15 10° SSE visible
